Location: Beauregard
(45.9590°N, 3.1117°E)
Time: 06:22:46
(UTC+00:00)

Daily predictions for brighter satellites

Satellite Brightness Start Highest point End
(mag) Time Altitude Azimuth Time Altitude Azimuth Time Altitude Azimuth
Cosmos 407 Rocket 3.5 19:17:26 10° SSW 19:22:45 83° ESE 19:28:02 10° NNE
SJ-6B 2.8 19:22:06 10° SSE 19:26:06 69° ENE 19:30:02 10° N
Cosmos 1862 3.6 19:22:52 10° SSW 19:26:54 75° W 19:30:59 10° N
Cosmos 1190 Rocket 4.0 19:21:42 10° SSW 19:26:57 74° ESE 19:32:16 10° NNE
deb Kosmos-1763 4.0 19:24:42 10° S 19:28:15 60° ESE 19:31:53 10° NNE
Cosmos 1140 Rocket 3.5 19:23:34 10° SSW 19:28:47 73° ESE 19:34:02 10° NNE
FALCON 9 DEB 4.3 19:26:03 10° W 19:29:25 45° NNW 19:32:48 10° NE
Cosmos 1023 Rocket 4.5 19:24:57 10° SSW 19:30:13 78° ESE 19:35:30 10° NNE
Resurs 1-3 4.1 19:27:07 10° SE 19:31:14 42° ENE 19:35:24 10° N
OBJECT-B 1.4 19:30:41 10° SE 19:33:48 40° ENE 19:36:55 10° N
Cosmos 1441 Rocket 3.5 19:30:23 10° SSW 19:34:07 69° WNW 19:37:51 10° N
IRIDIUM 106 4.3 19:29:21 10° S 19:34:33 81° E 19:39:48 10° N
Cosmos 1633 Rocket 3.4 19:32:37 10° SSE 19:36:51 46° E 19:41:05 10° NNE
Cosmos 1184 Rocket 3.6 19:34:45 10° SSE 19:37:42 31° E 19:40:40 10° NNE
SL-08 RB Rocket 4.1 19:34:26 10° S 19:39:02 70° WSW 19:43:43 10° NNW
Cosmos 921 Rocket 3.5 19:37:13 10° N 19:41:11 39° ENE 19:45:04 10° SE
Cosmos 2123 Rocket 4.2 19:36:30 10° N 19:42:39 57° ENE 19:48:47 10° SSE
Cosmos 2239 Rocket 4.4 19:36:38 10° S 19:42:44 76° E 19:48:54 10° NNE
Meteor 1-27 Rocket 3.9 19:42:00 10° NNW 19:47:58 86° W 19:53:55 10° S
Cosmos 1605 Rocket 4.4 19:46:09 10° SSE 19:51:47 41° E 19:57:25 10° NNE
ARGOS 4.4 19:48:01 10° S 19:53:07 42° W 19:58:13 10° NNW
Cosmos 1707 Rocket 3.7 19:49:38 10° NNW 19:53:58 74° W 19:58:16 10° S
CZ-2C R/B 2.6 19:49:38 10° NNE 19:54:52 89° WNW 20:00:08 10° SSW
NOSS 3-2 (A) 3.3 19:49:41 10° SSW 19:55:19 75° SE 20:01:48 10° NE
Cosmos 192 4.3 19:51:39 10° NNW 19:56:35 86° ENE 20:01:30 10° SSE
USA 267 4.0 19:53:29 10° ENE 19:58:55 27° SE 20:04:20 10° S
SL-16 R/B 2.9 19:56:53 10° NNW 20:02:15 41° NE 20:06:27 16° ESE
SL-4 R/B 3.2 19:58:30 10° W 20:02:20 39° NNW 20:05:53 10° ENE
MONITOR-E 4.5 20:00:55 10° S 20:03:10 45° W 20:05:28 10° NNW
BREEZE-M DEB (TANK) 2.7 20:00:56 10° W 20:03:25 56° N 20:08:59 10° ENE
BREEZE-M DEB (TANK) 4.2 20:00:22 10° WNW 20:04:03 18° WSW 20:06:17 10° SSW
SL-27 R/B 3.7 20:04:28 19° ESE 20:05:09 20° E 20:07:40 10° NE
NOSS 3-2 (C) 3.4 20:00:32 10° SSW 20:06:02 56° ESE 20:12:19 10° NE
Cosmos 2242 Rocket 4.3 20:02:15 10° N 20:06:21 36° ENE 20:09:08 18° SE
Cosmos 1470 Rocket 3.7 20:02:22 10° S 20:06:38 53° E 20:10:55 10° NNE
Sich 1 4.3 20:03:14 10° SSW 20:07:31 46° WNW 20:11:48 10° N
Cosmos 2082 Rocket 2.8 20:05:05 10° SW 20:10:42 61° WNW 20:16:20 10° NNE
BREEZE-M DEB (TANK) 3.0 20:08:10 10° WNW 20:11:02 38° N 20:12:31 14° ENE
USA 186 4.3 20:11:25 10° WSW 20:12:07 11° W 20:12:51 10° WNW
Meteor 2-20 Rocket 4.4 20:09:11 10° N 20:15:23 86° E 20:21:32 10° S
Meteor 1-4 Rocket 3.5 20:14:38 10° NNW 20:17:57 43° W 20:21:14 10° SSW
ERS-1 Rocket 4.2 20:16:14 17° ESE 20:18:50 26° ENE 20:22:56 10° N
Cosmos 2322 Rocket 2.8 20:14:10 10° NNW 20:19:38 45° ENE 20:23:15 20° ESE
Cosmos 1862 Rocket 3.7 20:17:19 10° NNW 20:21:48 78° W 20:25:59 11° S
Cosmos 1850 Rocket 4.1 20:18:07 10° S 20:23:16 54° ESE 20:28:24 10° NNE
Meteor 1-25 Rocket 4.1 20:19:36 10° S 20:25:10 77° E 20:30:50 10° NNE
SPOT 1/Viking Rocket 4.1 20:23:32 21° SE 20:26:37 43° ENE 20:31:34 10° N
Cosmos 841 Rocket 4.3 20:22:18 10° N 20:27:11 38° ENE 20:29:56 22° ESE
USA 32 4.0 20:22:41 10° S 20:27:54 81° E 20:33:09 10° N
Cosmos 2360 Rocket 3.3 20:23:38 10° N 20:28:39 31° NE 20:31:48 19° E
USA 276 2.2 20:25:43 10° WNW 20:28:54 70° NNE 20:30:10 32° E
X-37B 0.8 20:26:25 10° W 20:29:30 52° SSW 20:30:22 37° SE
Terra 3.4 20:27:56 16° E 20:29:45 20° ENE 20:33:12 10° NNE
Meteor 1-18 Rocket 4.2 20:24:33 10° N 20:30:06 65° ENE 20:33:52 21° SSE
ATLAS 3B R/B 3.2 20:25:30 10° S 20:31:15 33° ESE 20:37:02 10° NE
IGS 5A 3.7 20:29:39 26° SE 20:31:44 53° ENE 20:35:48 10° N
Cosmos 1238 Rocket 1.9 20:30:32 23° S 20:32:14 83° E 20:35:17 10° N
USA 234 4.1 20:29:00 11° E 20:34:58 45° NNE 20:41:06 10° NW
Cosmos 468 Rocket 4.0 20:30:59 10° NNW 20:36:19 89° WSW 20:39:42 23° SSE
CZ-2C R/B 4.3 20:31:56 10° N 20:36:26 58° WNW 20:40:49 10° SSW
Cosmos 1980 Rocket 3.5 20:32:24 10° NW 20:37:32 37° WSW 20:42:37 10° S
Cosmos 44 3.5 20:33:03 10° NNW 20:37:57 65° NE 20:40:36 28° SE
Resurs 01 Rocket 2.1 20:34:56 14° S 20:38:42 59° W 20:43:06 10° NNW
Iridium 4 Rocket 4.5 20:38:44 20° E 20:38:54 20° E 20:41:55 10° NE
Lacrosse 5 2.0 20:34:07 10° NW 20:39:10 67° SW 20:41:50 28° SSE
Cosmos 1602 3.6 20:37:46 17° S 20:40:42 82° E 20:44:39 10° N
Cosmos 1447 Rocket 4.5 20:34:35 10° N 20:40:58 76° E 20:45:25 20° SSE
CARTOSAT-1 4.4 20:40:31 28° ESE 20:41:53 35° ENE 20:45:49 10° N
Cosmos 1153 Rocket 4.5 20:36:52 14° S 20:42:11 64° E 20:48:19 10° NNE
GP-B 3.2 20:40:33 10° N 20:45:00 75° W 20:48:37 15° S
Cosmos 1933 Rocket 3.6 20:43:00 11° S 20:47:10 82° W 20:51:39 10° N
Cosmos 405 Rocket 3.2 20:50:04 11° SSW 20:53:35 57° WNW 20:57:18 10° N
Spot 2 Rocket 3.4 20:51:17 27° SSE 20:54:07 88° ENE 20:59:14 10° NNW
Cosmos 1814 Rocket 4.3 20:49:51 10° NNW 20:54:58 51° ENE 20:56:56 34° ESE
USA 238 DEB 4.4 20:49:32 10° WSW 20:56:03 55° NW 21:02:53 10° NE
USA 238 4.4 20:49:38 10° WSW 20:56:09 56° NW 21:02:59 10° NE
Cosmos 1515 3.6 20:54:41 10° N 20:58:32 89° W 20:59:36 46° S
Cosmos 1869 Rocket 3.7 20:57:44 41° SE 20:58:51 53° E 21:03:12 10° NNE
CENTAUR R/B 2.7 20:53:11 10° SW 20:59:07 76° NW 21:06:15 10° NE
Okean 1-7 2.9 20:56:04 10° N 21:00:24 86° E 21:01:51 41° SSE
Cosmos 1741 Rocket 4.1 20:56:56 10° SSW 21:02:11 76° WNW 21:07:30 10° NNE
Cosmos 1437 Rocket 2.9 21:02:29 10° NNW 21:06:16 66° W 21:07:19 43° SSW
OBJECT-B 3.8 21:05:02 10° WSW 21:06:22 12° W 21:07:43 10° WNW
Cosmos 1763 Rocket 4.1 21:05:21 10° NNW 21:10:32 53° WSW 21:13:14 27° S
Cosmos 1703 Rocket 3.8 21:06:24 10° NNW 21:10:42 66° W 21:12:20 36° SSW
H-2A R/B 4.2 21:07:11 10° N 21:11:12 52° WNW 21:14:45 13° SW
Cosmos 1570 Rocket 4.0 21:07:42 10° NNW 21:13:04 89° ENE 21:14:58 42° SSE
Cosmos 2333 Rocket 3.5 21:08:07 10° N 21:13:10 30° NE 21:15:19 23° E
Cosmos 2084 Rocket 4.4 21:09:19 10° WSW 21:13:23 48° NW 21:17:35 10° NNE
ATLAS 5 CENTAUR R/B 3.0 21:10:49 10° NNW 21:13:27 37° NE 21:14:58 29° E
Landsat 7 4.3 21:15:20 29° SSW 21:17:34 54° W 21:22:16 10° NNW
SPOT 5 2.6 21:17:39 57° SE 21:18:23 70° ENE 21:22:48 10° N
SWARM A 4.3 21:15:40 10° N 21:18:54 76° WNW 21:18:54 76° WNW
Meteor 1-5 Rocket 4.3 21:18:35 36° S 21:21:08 71° E 21:27:01 10° NNE
Cosmos 2208 Rocket 3.9 21:19:18 10° NNW 21:24:34 88° WSW 21:25:57 50° SSE
Cosmos 1733 Rocket 4.1 21:29:41 33° ENE 21:29:41 33° ENE 21:32:56 10° NNE
Meteor 1-11 Rocket 3.8 21:31:46 50° SE 21:32:53 59° E 21:38:35 10° NNE
Lacrosse 4 Rocket 2.3 21:37:37 38° NE 21:37:37 38° NE 21:40:23 10° NE
Tsikada Rocket 4.3 21:31:13 10° N 21:37:23 51° ENE 21:38:46 44° ESE
Cosmos 2100 Rocket 4.0 21:36:57 29° SSW 21:40:14 76° W 21:46:25 10° N
USA 267 3.2 21:35:54 10° NE 21:42:28 89° SE 21:49:02 10° SW
SL-4 R/B 3.0 21:38:55 10° WNW 21:42:30 37° N 21:42:59 35° NNE
Meteor 2-4 Rocket 4.1 21:37:19 10° NNW 21:42:47 57° W 21:44:40 38° SSW
Cosmos 2219 Rocket 2.9 21:37:44 10° NNW 21:43:09 42° NE 21:44:23 37° E
Cosmos 540 Rocket 3.9 21:38:12 10° NNW 21:43:14 53° WSW 21:44:28 43° SSW
Cosmos 2173 Rocket 4.0 21:41:11 32° SSW 21:44:13 76° W 21:50:21 10° N
SL-16 R/B 3.3 21:41:12 10° NW 21:46:16 35° WSW 21:48:19 27° SW
Cosmos 1242 Rocket 3.7 21:48:22 10° N 21:50:53 39° NNE 21:50:53 39° NNE
SAR-Lupe-2 4.4 21:50:51 10° N 21:54:04 48° NW 21:54:04 48° NW
Meteor 1-23 Rocket 4.2 21:50:42 10° N 21:56:31 66° ENE 21:57:14 60° ESE
Cosmos 2322 3.6 21:50:59 10° NNW 21:56:40 72° ENE 21:57:25 63° ESE
Cosmos 1725 Rocket 3.9 21:55:18 55° SSE 21:56:46 78° E 22:03:07 10° N
Cosmos 1459 Rocket 4.4 21:53:46 28° SSW 21:57:07 62° W 22:03:28 10° N
ERS-1 Rocket 3.7 21:56:14 38° SW 21:57:23 45° W 22:02:12 10° NNW
Cosmos 1833 4.1 21:58:11 48° SSW 21:59:52 85° WNW 22:05:35 10° NNE
SL-08 R/B 4.3 21:59:41 58° S 22:00:59 85° E 22:07:08 10° N
Cosmos 1536 3.5 22:03:05 52° N 22:03:05 52° N 22:06:09 10° N
Cosmos 2346 Rocket 4.4 21:56:06 10° N 22:02:10 78° W 22:03:32 56° SSW
Meteor 1-13 Rocket 4.4 21:56:53 10° NNW 22:02:20 64° W 22:03:23 53° SW
Cosmos 2322 Rocket 3.4 21:58:32 10° NW 22:03:30 31° WSW 22:05:04 27° SW
Cosmos 2016 Rocket 4.0 22:02:20 45° SSW 22:04:26 79° W 22:10:52 10° N
Cosmos 1378 Rocket 4.3 22:01:16 10° N 22:04:52 45° NE 22:04:52 45° NE
Cosmos 2221 Rocket 3.9 22:01:11 10° NNW 22:05:36 59° W 22:05:36 59° W
Terra 2.2 22:06:49 53° WSW 22:07:07 54° W 22:11:48 10° NNW
Okean 3 4.4 22:04:32 10° NNW 22:08:37 42° W 22:08:38 42° W
COSMOS 2487 4.4 22:12:29 28° N 22:12:29 28° N 22:14:17 10° NNE
Cosmos 2333 4.1 22:05:45 10° NNW 22:11:35 88° WSW 22:12:06 75° SSE
Cosmos 1666 3.8 22:12:27 41° NW 22:12:27 41° NW 22:15:21 10° N
Cosmos 2360 Rocket 2.7 22:07:26 10° NW 22:12:52 48° WSW 22:13:33 45° SW
USA 234 3.1 22:16:20 60° SE 22:17:41 83° SW 22:24:16 10° NW
Iridium 4 Rocket 4.2 22:18:30 35° W 22:18:39 35° W 22:22:30 10° NNW
Lacrosse 5 4.2 22:19:17 10° W 22:21:01 12° WSW 22:21:01 12° WSW
ATLAS 3B R/B 3.1 22:15:06 10° SW 22:21:36 58° NW 22:28:11 10° NNE
MOS 1-B Rocket 3.7 22:17:28 10° NNE 22:23:05 73° ESE 22:23:10 73° ESE
Cosmos 2297 Rocket 4.1 22:32:11 17° ENE 22:32:11 17° ENE 22:34:14 10° NE
Cosmos 1743 4.4 22:35:21 31° NNE 22:35:21 31° NNE 22:37:29 10° N
Cosmos 2233 Rocket 3.9 22:34:08 70° SSW 22:34:56 85° W 22:41:18 10° N
Thor Agena Rocket 4.0 22:30:59 10° NNE 22:35:03 50° ENE 22:35:03 50° ENE
Cosmos 1980 4.4 22:31:03 10° NNW 22:36:27 41° NE 22:36:58 40° ENE
COSMOS 2428 2.6 22:34:06 10° NNW 22:39:48 86° W 22:39:48 86° W
Cosmos 44 Rocket 3.7 22:38:46 10° NW 22:42:56 61° WNW 22:42:56 61° WNW
Cosmos 2237 Rocket 2.8 22:38:49 10° NNW 22:44:14 44° ENE 22:44:34 43° ENE
Cosmos 1464 Rocket 4.4 22:46:12 46° E 22:46:12 46° E 22:51:46 10° NNE
Cosmos 1271 Rocket 4.4 22:42:22 10° NNW 22:44:32 31° NNW 22:44:32 31° NNW
NOSS 0 Rocket 3.9 22:45:15 10° NNW 22:51:31 74° ENE 22:51:50 72° E
Geosat 4.2 22:58:12 67° NNW 22:58:12 67° NNW 23:02:35 10° NNW
Cosmos 2333 Rocket 2.7 22:52:08 10° NW 22:57:19 51° W 22:57:19 51° W
Cosmos 1503 Rocket 4.2 22:58:15 71° NNW 22:58:15 71° NNW 23:03:08 10° NNE
Meteor 2-11 Rocket 4.5 23:06:27 67° W 23:06:44 68° W 23:12:51 10° N
Lacrosse 4 Rocket 3.8 23:13:52 17° WNW 23:15:16 19° NW 23:18:20 10° N
ALOS 2 3.8 23:17:00 41° NNW 23:17:00 41° NNW 23:19:55 10° NNW
Cosmos 773 Rocket 4.4 23:13:29 10° NNW 23:17:38 58° N 23:17:38 58° N
Cosmos 2034 Rocket 4.2 23:19:27 60° E 23:19:27 60° E 23:25:24 10° NNE
Cosmos 1072 Rocket 4.3 23:20:38 84° N 23:20:38 84° N 23:26:34 10° N
Cosmos 2227 Rocket 3.2 23:22:00 36° ENE 23:22:00 36° ENE 23:25:48 10° NE
Cosmos 1891 Rocket 4.4 23:21:57 89° SSW 23:21:58 90° W 23:28:24 10° N
USA 267 4.3 23:19:02 10° NE 23:25:08 43° NNW 23:31:13 10° W
Cosmos 2219 Rocket 3.4 23:21:55 10° NW 23:26:05 32° W 23:26:05 32° W
Cosmos 1538 Rocket 4.5 23:31:24 10° NNW 23:35:35 57° N 23:35:35 57° N
Cosmos 1607 4.1 23:40:33 10° NNW 23:47:01 71° NE 23:47:26 69° ENE
